Regional Weather Roundup
Issued by NWS

Home | Current Version | Previous Version | Text Only | Print | Product List | Glossary Off
Versions: 1 2 3 4 5 6 7 8 9 10 11 12 13 14 15 16 17 18 19 20 21 22 23 24 25 26 27 28 29 30 31 32 33 34 35 36 37 38 39 40 41 42 43 44 45 46 47 48 49 50

978
ASUS43 KLSX 232157
RWRMO

WEATHER SUMMARY FOR MISSOURI
NATIONAL WEATHER SERVICE SPRINGFIELD MO
400 PM CST THU FEB 23 2017

NOTE: "FAIR" INDICATES FEW OR NO CLOUDS BELOW 12,000 FEET WITH NO
       SIGNIFICANT WEATHER AND/OR OBSTRUCTIONS TO VISIBILITY.
       CURRENT SKY AND/OR WEATHER CONDITIONS ARE NOT AVAILABLE FOR
       CHILLICOTHE AND FARMINGTON.

MOZ001>031-035>038-043-044-053-054-232300-
...NORTHERN AND WESTERN MISSOURI...

CITY           SKY/WX    TMP DP  RH WIND       PRES   REMARKS
KANSAS CTY INT PTSUNNY   54  45  71 E16       29.44F
LEE`S SUMMIT   CLOUDY    57  47  69 NE9       29.44F
ST JOSEPH      PTSUNNY   56  46  69 E8        29.48S
CHILLICOTHE      N/A     50  44  80 E6        29.52S
KIRKSVILLE     CLOUDY    48  45  87 E16G25    29.54F

$$
MOZ066>068-077>081-088>096-101>105-232300-
...SOUTHWEST MISSOURI...

CITY           SKY/WX    TMP DP  RH WIND       PRES   REMARKS
SPRINGFIELD    PTSUNNY   81  45  28 S20G30    29.43F
JOPLIN         PTSUNNY   81  47  30 S15G31    29.39F
BRANSON        PTSUNNY   75  48  38 S16G25    29.50F

$$
MOZ032>034-039>042-045>050-055>058-069>072-232300-
...CENTRAL MISSOURI...

CITY           SKY/WX    TMP DP  RH WIND       PRES   REMARKS
COLUMBIA       NOT AVBL
JEFFERSON CITY MOSUNNY   72  53  51 SE22      29.46F
ROLLA          SUNNY     70  55  59 SE16G24   29.49F
SEDALIA        PTSUNNY   69  55  60 E15       29.46F
WARRENSBURG    CLOUDY    63  52  67 NE13      29.43F

$$
MOZ051-052-059>065-232300-
...EAST CENTRAL MISSOURI...

CITY           SKY/WX    TMP DP  RH WIND       PRES   REMARKS
ST LOUIS INTL  PTSUNNY   71  55  56 SE21G28   29.57F

$$
MOZ072>076-082>087-097>100-106>115-232300-
...SOUTH CENTRAL AND SOUTHEAST MISSOURI...

CITY           SKY/WX    TMP DP  RH WIND       PRES   REMARKS
CAPE GIRARDEAU MOSUNNY   72  54  53 S16G25    29.63F
POPLAR BLUFF   SUNNY     72  58  61 S13       29.62F
WEST PLAINS    SUNNY     72  54  53 S14G28    29.57F

$$



USA.gov is the U.S. government's official web portal to all federal, state and local government web resources and services.